Home > Weather > Hoofddorp > Past weeks

Flag for Netherlands Past Weather in Hoofddorp, Netherlands — Yesterday and Last 2 Weeks

Now
66 °F

Scattered clouds.


Feels Like: 66 °F
Forecast: 57 / 64 °F
Wind: 8 mph from Northwest

Location: Amsterdam Schiphol Airport

Current Time: Jun 28, 2016 at 3:25:59 PM

Latest Report: Jun 28, 2016 at 2:55 PM


Visibility: N/A

Pressure: 29.98 "Hg

Humidity: 78%

Dew Point: 59 °F

Location of HoofddorpLocation

Past Weather in Hoofddorp — Graph

°F

Hoofddorp Temperature Yesterday

Maximum temperature yesterday: 64 °F (at 3:25 PM)
Minimum temperature yesterday: 55 °F (at 10:25 PM)
Average temperature yesterday: 60 °F

High & Low Weather Summary for the Past Weeks

 TemperatureHumidityPressure
High81 °F (Jun 23, 4:55 PM)100% (Jun 15, 2:55 AM)30.24 "Hg (Jun 15, 2:55 AM)
Low50 °F (Jun 28, 4:25 AM)56% (Jun 16, 11:25 AM)29.45 "Hg (Jun 14, 8:25 AM)
Average61 °F84%29.90 "Hg
* Reported Jun 13 1:25 PM — Jun 28 1:55 PM, Hoofddorp, Weather by CustomWeather, © 2016

Note: Actual official high and low records may vary slightly from our data, if they occured in-between our weather recording intervals... More about our weather records

Advertising

Hoofddorp Weather History for the Previous 24 Hours

Scroll right to see more
 ConditionsComfort  
Time TempWeatherWind HumidityBarometerVisibility
1:55 PM
Tue, Jun 28
66 °FSprinkles. Scattered clouds.8 mph68%29.98 "HgN/A
1:25 PM66 °FScattered showers. Scattered clouds.10 mph64%29.98 "HgN/A
12:55 PM66 °FScattered clouds.12 mph64%30.01 "HgN/A
12:25 PM68 °FPassing clouds.13 mph64%30.01 "HgN/A
11:55 AM68 °FPassing clouds.10 mph64%30.01 "HgN/A
11:25 AM66 °FScattered clouds.13 mph68%30.01 "HgN/A
10:55 AM64 °FPassing clouds.9 mph73%30.04 "HgN/A
10:25 AM63 °FPassing clouds.8 mph77%30.04 "HgN/A
9:55 AM59 °FScattered clouds.5 mph82%30.04 "HgN/A
8:55 AM59 °FPassing clouds.6 mph77%30.07 "HgN/A
8:25 AM59 °FSunny.6 mph77%30.04 "Hg10 mi
7:55 AM57 °FPassing clouds.5 mph82%30.07 "HgN/A
7:25 AM57 °FSunny.5 mph82%30.07 "Hg10 mi
6:55 AM55 °FSunny.3 mph94%30.07 "Hg10 mi
6:25 AM54 °FSunny.3 mph94%30.07 "Hg10 mi
5:55 AM54 °FClear.1 mph94%30.07 "Hg10 mi
5:25 AM52 °FPassing clouds.2 mph100%30.07 "HgN/A
4:55 AM52 °FPassing clouds.2 mph94%30.07 "HgN/A
4:25 AM50 °FPassing clouds.3 mph100%30.07 "HgN/A
3:55 AM52 °FClear.2 mph100%30.07 "Hg10 mi
3:25 AM52 °FClear.1 mph100%30.07 "Hg10 mi
2:55 AM54 °FPassing clouds.No wind94%30.09 "HgN/A
2:25 AM54 °FPassing clouds.3 mph94%30.09 "HgN/A
1:55 AM55 °FPassing clouds.3 mph82%30.09 "HgN/A
1:25 AM55 °FClear.5 mph82%30.09 "Hg10 mi
12:55 AM55 °FClear.6 mph88%30.09 "Hg10 mi
12:25 AM55 °FPassing clouds.3 mph82%30.09 "HgN/A
11:55 PM
Mon, Jun 27
55 °FClear.2 mph82%30.09 "Hg10 mi
11:25 PM55 °FPassing clouds.5 mph82%30.09 "HgN/A
10:55 PM55 °FSunny.3 mph82%30.09 "Hg10 mi
10:25 PM55 °FSunny.3 mph82%30.09 "Hg10 mi
9:55 PM57 °FSunny.6 mph77%30.07 "Hg10 mi
9:25 PM59 °FSunny.8 mph72%30.07 "Hg10 mi
8:55 PM61 °FPassing clouds.8 mph68%30.07 "HgN/A
8:25 PM63 °FPassing clouds.8 mph64%30.07 "HgN/A
7:55 PM63 °FPassing clouds.8 mph68%30.07 "HgN/A
7:25 PM63 °FPassing clouds.10 mph64%30.04 "HgN/A
6:55 PM64 °FPassing clouds.10 mph60%30.04 "HgN/A
6:25 PM64 °FPassing clouds.9 mph64%30.04 "HgN/A
5:55 PM64 °FPassing clouds.12 mph68%30.04 "HgN/A
5:25 PM64 °FPassing clouds.12 mph68%30.04 "HgN/A
4:55 PM64 °FPassing clouds.13 mph73%30.04 "HgN/A
4:25 PM63 °FScattered clouds.14 mph77%30.04 "HgN/A
3:55 PM63 °FScattered clouds.13 mph77%30.04 "HgN/A
3:25 PM64 °FScattered clouds.10 mph78%30.01 "HgN/A
Weather by CustomWeather, © 2016

See weather overviewHow to use our weather pages